This demonstration page uses our WeatherBlox Daily Observations layout. Learn more.

Hourly Observations for April 16, 2016

Temp ( °F °C ) Dew Point ( °F °C ) Humidity (%) Winds ( mph kmh ) Pressure ( in mb ) Visibility ( mi km ) Precip ( " mm )
12:15 am 00:15 Cloudy 62 16.7 47 8.5 59 59 SSE 17 28 29.77 1008 10 16.0934 0 0
12:35 am 00:35 Partly Cloudy 62 16.5 47 8.6 60 60 SSE 18 30 29.8 1009 10 16.0934 0 0
12:55 am 00:55 Partly Cloudy 61 16.2 48 8.8 62 62 SSE 18 30 29.8 1009 10 16.0934 0 0
1:15 am 01:15 Mostly Cloudy 61 16 48 9 63 63 SSE 18 30 29.8 1009 10 16.0934 0 0
1:35 am 01:35 Mostly Cloudy 61 16 48 9.1 64 64 SSE 18 30 29.8 1009 10 16.0934 0 0
1:55 am 01:55 Cloudy 60 15.8 48 9.1 65 65 SSE 16 26 29.8 1009 10 16.0934 0 0
2:15 am 02:15 Mostly Cloudy 60 15.5 48 9.1 66 66 SSE 18 30 29.83 1010 10 16.0934 0 0
2:35 am 02:35 Mostly Cloudy 60 15.4 48 9 66 66 SSE 17 28 29.83 1010 10 16.0934 0 0
2:55 am 02:55 Cloudy 60 15.5 49 9.2 66 66 SSE 18 30 29.83 1010 10 16.0934 0 0
3:15 am 03:15 Mostly Cloudy 59 15.1 49 9.3 69 69 SSE 15 24 29.8 1009 10 16.0934 0 0
3:35 am 03:35 Mostly Cloudy 59 15.1 49 9.4 69 69 S 17 28 29.83 1010 10 16.0934 0 0
3:55 am 03:55 Cloudy with Light Rain 59 14.8 50 9.8 72 72 S 14 22 29.83 1010 10 16.0934 0 0
4:15 am 04:15 Cloudy with Light Rain 57 13.8 51 10.5 81 81 S 13 20 29.85 1011 10 16.0934 0 0
4:35 am 04:35 Mostly Cloudy 56 13.2 52 11 87 87 SSE 12 19 29.83 1010 10 16.0934 0.01 0.254
4:55 am 04:55 Mostly Cloudy 56 13.2 52 11 87 87 SE 15 24 29.8 1009 10 16.0934 0.01 0.254
5:15 am 05:15 Cloudy with Light Rain 56 13.1 52 11 87 87 SSE 17 28 29.83 1010 10 16.0934 0 0
5:35 am 05:35 Cloudy 56 13.1 52 11.1 88 88 SSE 16 26 29.85 1011 10 16.0934 0 0
5:55 am 05:55 Cloudy 56 13.5 52 11.2 86 86 SSE 17 28 29.85 1011 10 16.0934 0 0
6:15 am 06:15 Mostly Cloudy 56 13.5 52 11.1 86 86 SSE 16 26 29.85 1011 10 16.0934 0 0
6:35 am 06:35 Mostly Cloudy with Light Rain 55 13 52 11.2 89 89 S 12 19 29.85 1011 10 16.0934 0.01 0.254
6:55 am 06:55 Cloudy with Light Rain 55 12.7 52 11.1 90 90 S 15 24 29.88 1012 10 16.0934 0.02 0.508
7:15 am 07:15 Cloudy with Rain 55 12.5 52 11.2 92 92 SE 15 24 29.85 1011 7 11.26538 0.04 1.016
7:35 am 07:35 Cloudy with Light Rain 54 12.4 53 11.4 94 94 SSE 9 15 29.88 1012 10 16.0934 0.07 1.778
7:55 am 07:55 Cloudy with Light Rain 54 12.2 52 11.2 94 94 SE 13 20 29.88 1012 7 11.26538 0.08 2.032
8:15 am 08:15 Cloudy with Rain 54 12.2 52 11.2 94 94 SSE 12 19 29.88 1012 4 6.43736 0.03 0.762
8:35 am 08:35 Cloudy with Rain 54 12.2 52 11.3 94 94 SSE 16 26 29.91 1013 4 6.43736 0.08 2.032
8:55 am 08:55 Cloudy with Rain 54 12.4 53 11.5 94 94 SSE 14 22 29.91 1013 4 6.43736 0.13 3.302
9:15 am 09:15 Cloudy with Rain 55 12.5 53 11.7 95 95 SSE 14 22 29.91 1013 4 6.43736 0.03 0.762
9:35 am 09:35 Cloudy with Light Rain 55 12.8 54 12 95 95 SE 14 22 29.91 1013 7 11.26538 0.04 1.016
9:55 am 09:55 Cloudy with Light Rain 55 13 54 12.1 94 94 SE 15 24 29.91 1013 5 8.0467 0.05 1.27
10:15 am 10:15 Cloudy with Light Rain 55 13 54 12.2 95 95 SE 12 19 29.94 1014 5 8.0467 0.01 0.254
10:35 am 10:35 Cloudy with Light Rain 56 13.1 54 12.3 95 95 SE 16 26 29.94 1014 5 8.0467 0.04 1.016
10:55 am 10:55 Cloudy with Rain 56 13.2 54 12.3 94 94 SE 14 22 29.94 1014 4 6.43736 0.09 2.286
11:15 am 11:15 Cloudy with Heavy Rain 56 13.2 54 12.3 94 94 ESE 24 39 29.91 1013 2 3.21868 0.1 2.54
11:35 am 11:35 Cloudy with Nearby Thunderstorms 56 13.1 54 12.3 95 95 ESE 24 39 29.91 1013 2.5 4.02335 0.22 5.588
11:55 am 11:55 Cloudy with Rain 55 13 54 12.2 95 95 ESE 26 43 29.91 1013 2.5 4.02335 0.29 7.366
12:15 pm 12:15 Cloudy with Rain 55 13 54 12.2 95 95 ESE 28 44 29.91 1013 3 4.82802 0.09 2.286
12:35 pm 12:35 Cloudy with Heavy Thunderstorms 55 13 54 12.2 95 95 ESE 28 44 29.94 1014 3 4.82802 0.14 3.556
12:55 pm 12:55 Cloudy with Thunderstorms 55 13 54 12.1 94 94 ESE 29 46 29.91 1013 2.5 4.02335 0.25 6.35
1:15 pm 13:15 Cloudy with Rain 55 13 54 12.1 94 94 ESE 31 50 29.91 1013 3 4.82802 0.1 2.54
1:35 pm 13:35 Cloudy with Heavy Thunderstorms 55 13 54 12.1 94 94 ESE 29 46 29.91 1013 3 4.82802 0.18 4.572
1:55 pm 13:55 Cloudy with Thunderstorms 55 12.9 54 12.1 95 95 ESE 25 41 29.94 1014 2 3.21868 0.29 7.366
2:15 pm 14:15 Cloudy with Thunderstorms 55 13 54 12.1 94 94 ESE 23 37 29.94 1014 4 6.43736 0.08 2.032
2:35 pm 14:35 Cloudy with Nearby Thunderstorms 55 13 54 12.2 95 95 ESE 23 37 29.94 1014 3 4.82802 0.17 4.318
2:55 pm 14:55 Cloudy with Nearby Thunderstorms 55 13 54 12.2 95 95 ESE 21 33 29.94 1014 2.5 4.02335 0.27 6.858
3:15 pm 15:15 Cloudy 55 13 54 12.3 96 96 ESE 22 35 29.94 1014 3 4.82802 0.07 1.778
3:35 pm 15:35 Cloudy with Rain 55 13 54 12.3 96 96 E 25 41 29.91 1013 3 4.82802 0.12 3.048
3:55 pm 15:55 Cloudy with Rain 55 13 54 12.3 96 96 E 30 48 29.91 1013 3 4.82802 0.18 4.572
4:15 pm 16:15 Cloudy with Light Rain 56 13.1 54 12.4 96 96 E 28 44 29.88 1012 4 6.43736 0.04 1.016
4:35 pm 16:35 Cloudy with Light Rain 56 13.2 55 12.5 96 96 E 24 39 29.91 1013 7 11.26538 0.06 1.524
4:55 pm 16:55 Cloudy with Nearby Thunderstorms 56 13.3 55 12.5 95 95 E 22 35 29.94 1014 4 6.43736 0.11 2.794
5:15 pm 17:15 Cloudy with Rain 56 13.3 55 12.5 95 95 E 21 33 29.91 1013 3 4.82802 0.08 2.032
5:35 pm 17:35 Cloudy with Light Rain 56 13.5 55 12.5 94 94 E 21 33 29.91 1013 7 11.26538 0.12 3.048
5:55 pm 17:55 Cloudy with Rain 56 13.5 55 12.5 94 94 E 24 39 29.94 1014 4 6.43736 0.18 4.572
6:15 pm 18:15 Cloudy with Rain 56 13.5 55 12.5 94 94 E 22 35 29.91 1013 4 6.43736 0.07 1.778
6:35 pm 18:35 Cloudy with Light Rain 56 13.5 55 12.6 94 94 E 21 33 29.94 1014 5 8.0467 0.1 2.54
6:55 pm 18:55 Cloudy with Light Rain 57 13.7 55 12.7 94 94 E 17 28 29.94 1014 7 11.26538 0.12 3.048
7:15 pm 19:15 Cloudy with Light Rain 57 13.7 55 12.7 94 94 E 17 28 29.94 1014 10 16.0934 0 0
7:35 pm 19:35 Cloudy with Light Rain 57 13.7 55 12.7 94 94 E 14 22 29.94 1014 7 11.26538 0.03 0.762
7:55 pm 19:55 Cloudy with Light Rain 57 13.7 55 12.8 94 94 E 13 20 29.94 1014 5 8.0467 0.08 2.032
8:15 pm 20:15 Cloudy with Light Rain 57 13.7 55 13 96 96 E 10 17 29.94 1014 5 8.0467 0.05 1.27
8:35 pm 20:35 Cloudy with Light Rain 56 13.6 55 13 96 96 E 12 19 29.94 1014 7 11.26538 0.08 2.032
8:55 pm 20:55 Cloudy with Rain 57 13.7 55 13 96 96 E 12 19 29.94 1014 5 8.0467 0.12 3.048
9:15 pm 21:15 Cloudy with Rain 56 13.6 55 13 96 96 ENE 10 17 29.97 1015 4 6.43736 0.04 1.016
9:35 pm 21:35 Cloudy with Light Rain 56 13.6 55 13 96 96 E 8 13 29.97 1015 5 8.0467 0.05 1.27
9:55 pm 21:55 Cloudy with Rain 57 13.7 55 13 96 96 ENE 12 19 29.97 1015 5 8.0467 0.07 1.778
10:15 pm 22:15 Cloudy with Light Rain 57 13.7 55 13 96 96 ENE 8 13 29.97 1015 7 11.26538 0.04 1.016
10:35 pm 22:35 Cloudy with Rain 57 13.8 56 13.1 96 96 ENE 10 17 29.97 1015 5 8.0467 0.07 1.778
10:55 pm 22:55 Cloudy with Rain 52 11 50 9.9 93 93 NNE 10 17 30 1016 5 8.0467 0.15 3.81
11:15 pm 23:15 Cloudy with Heavy Rain 49 9.7 48 9 95 95 NNE 13 20 30 1016 5 8.0467 0.08 2.032
11:35 pm 23:35 Cloudy with Nearby Thunderstorms 49 9.5 48 8.7 95 95 NNE 12 19 30 1016 5 8.0467 0.19 4.826
11:55 pm 23:55 Cloudy with Light Rain 50 9.9 49 9.3 96 96 ENE 8 13 30 1016 10 16.0934 0.19 4.826

Powered by AerisWeather